Auburn, IN

8:26 AM EDT on April 26, 2017 (GMT -0400)
Auburn

Weather History for KGWB - June, 2013

Change the Weather History Date:

Monday, June 10, 2013

  Actual Average (KFWA) Record (KFWA)
Temperature  
Mean Temperature 71 °F -  
Max Temperature 78 °F 79 °F 96 °F (1933)
Min Temperature 64 °F 56 °F 42 °F (1913)
Cooling Degree Days 6    
Growing Degree Days 21 (Base 50)    
Moisture  
Dew Point 62 °F    
Average Humidity 79    
Maximum Humidity 94    
Minimum Humidity 47    
Precipitation  
Precipitation 0.34 in - - ()
Sea Level Pressure  
Sea Level Pressure 29.81 in    
Wind  
Wind Speed 5 mph (SW)    
Max Wind Speed 14 mph    
Max Gust Speed 18 mph    
Visibility 7 miles    
Events Rain    
Averages and records for this station are not official NWS values.
T = Trace of Precipitation, MM = Missing Value Source: NWS Daily Summary

Daily Weather History Graph

Daily Weather History Graph

Search for Another Location

Airport or City:

Trip Planner

Search our weather history database for the weather conditions in past years. The results will help you decide how hot, cold, wet, or windy it might be!

Date:

Astronomy

Jun. 10, 2013 Rise Set
Actual Time 6:06 AM EDT 9:13 PM EDT
Civil Twilight 5:33 AM EDT 9:46 PM EDT
Nautical Twilight 4:50 AM EDT 10:29 PM EDT
Astronomical Twilight 3:59 AM EDT 11:20 PM EDT
Moon 7:55 AM EDT (6/10) 10:38 PM EDT (6/10)
Length of Visible Light 16h 13m
Length of Day
15h 06m
Waxing Crescent, 4% of the Moon is Illuminated
Jun 10
Waxing Crescent
Jun 16
First Quarter
Jun 23
Full
Jun 30
Last Quarter
Jul 8
New

Hourly Weather History & Observations

Time (EDT) Temp. Dew Point Humidity Pressure Visibility Wind Dir Wind Speed Gust Speed Precip Events Conditions
12:15 AM 66.2 °F 62.6 °F 88% 29.90 in 5.0 mi East 4.6 mph - N/A   Overcast
12:35 AM 66.2 °F 62.6 °F 88% 29.90 in 7.0 mi East 4.6 mph - N/A   Overcast
12:55 AM 66.2 °F 62.6 °F 88% 29.90 in 7.0 mi East 3.5 mph - N/A   Overcast
1:15 AM 66.2 °F 62.6 °F 88% 29.89 in 7.0 mi East 5.8 mph - N/A   Overcast
1:35 AM 66.2 °F 62.6 °F 88% 29.89 in 5.0 mi East 5.8 mph - N/A Rain Rain
1:55 AM 66.2 °F 62.6 °F 88% 29.88 in 4.0 mi East 4.6 mph - 0.02 in Rain Light Rain
2:15 AM 66.2 °F 62.6 °F 88% 29.87 in 4.0 mi East 4.6 mph - 0.01 in Rain Light Rain
2:35 AM 66.2 °F 62.6 °F 88% 29.86 in 4.0 mi East 4.6 mph - 0.01 in Rain Rain
2:55 AM 66.2 °F 62.6 °F 88% 29.86 in 3.0 mi East 3.5 mph - 0.02 in Rain Light Rain
3:15 AM 66.2 °F 62.6 °F 88% 29.85 in 3.0 mi ESE 3.5 mph - 0.01 in Rain Light Rain
3:35 AM 66.2 °F 62.6 °F 88% 29.85 in 3.0 mi East 5.8 mph - 0.03 in Rain Rain
3:55 AM 66.2 °F 62.6 °F 88% 29.84 in 3.0 mi East 4.6 mph - 0.07 in Rain Heavy Rain
4:15 AM 66.2 °F 62.6 °F 88% 29.83 in 2.5 mi East 3.5 mph - 0.07 in Rain Rain
4:35 AM 66.2 °F 64.4 °F 94% 29.83 in 2.0 mi Calm Calm - 0.12 in Rain Rain
4:55 AM 66.2 °F 64.4 °F 94% 29.83 in 2.0 mi Calm Calm - 0.14 in Rain Rain
5:15 AM 66.2 °F 64.4 °F 94% 29.82 in 3.0 mi East 4.6 mph - N/A Rain Light Rain
5:35 AM 66.2 °F 62.6 °F 88% 29.82 in 3.0 mi East 4.6 mph - 0.01 in Rain Light Rain
5:55 AM 66.2 °F 62.6 °F 88% 29.81 in 3.0 mi East 4.6 mph - 0.01 in   Light Drizzle
6:15 AM 66.2 °F 62.6 °F 88% 29.80 in 3.0 mi East 4.6 mph - N/A Rain Light Rain
6:35 AM 66.2 °F 62.6 °F 88% 29.80 in 2.5 mi ESE 4.6 mph - N/A   Overcast
6:55 AM 66.2 °F 62.6 °F 88% 29.80 in 2.5 mi ESE 4.6 mph - N/A   Overcast
7:15 AM 66.2 °F 62.6 °F 88% 29.80 in 2.5 mi ESE 3.5 mph - N/A   Overcast
7:35 AM 66.2 °F 62.6 °F 88% 29.81 in 3.0 mi ESE 3.5 mph - N/A   Overcast
7:55 AM 66.2 °F 62.6 °F 88% 29.80 in 4.0 mi SE 5.8 mph - N/A Rain Rain
8:15 AM 64.4 °F 62.6 °F 94% 29.80 in 2.5 mi South 5.8 mph - 0.03 in Rain Rain
8:35 AM 64.4 °F 62.6 °F 94% 29.80 in 5.0 mi SSE 4.6 mph - 0.06 in Rain Rain
8:55 AM 64.4 °F 62.6 °F 94% 29.80 in 5.0 mi South 4.6 mph - 0.07 in   Light Drizzle
9:15 AM 64.4 °F 62.6 °F 94% 29.80 in 3.0 mi South 3.5 mph - 0.01 in Rain Rain
9:35 AM 64.4 °F 62.6 °F 94% 29.81 in 5.0 mi South 5.8 mph - 0.01 in Rain Rain
9:55 AM 64.4 °F 62.6 °F 94% 29.80 in 7.0 mi SSW 4.6 mph - 0.01 in   Overcast
10:15 AM 66.2 °F 62.6 °F 88% 29.80 in 7.0 mi SSW 4.6 mph - N/A   Overcast
10:35 AM 68.0 °F 62.6 °F 83% 29.80 in 7.0 mi SSW 5.8 mph - N/A   Overcast
10:55 AM 68.0 °F 62.6 °F 83% 29.80 in 7.0 mi SSW 4.6 mph - N/A   Overcast
11:15 AM 68.0 °F 62.6 °F 83% 29.80 in 10.0 mi SW 4.6 mph - N/A   Overcast
11:35 AM 68.0 °F 62.6 °F 83% 29.80 in 10.0 mi SW 5.8 mph - N/A   Mostly Cloudy
11:55 AM 69.8 °F 62.6 °F 78% 29.80 in 10.0 mi SW 6.9 mph - N/A   Scattered Clouds
12:15 PM 69.8 °F 62.6 °F 78% 29.80 in 10.0 mi SW 4.6 mph - N/A   Mostly Cloudy
12:35 PM 69.8 °F 62.6 °F 78% 29.81 in 10.0 mi WSW 5.8 mph - N/A Rain Light Rain
12:55 PM 71.6 °F 62.6 °F 73% 29.80 in 10.0 mi WSW 5.8 mph - N/A   Overcast
1:15 PM 71.6 °F 62.6 °F 73% 29.80 in 10.0 mi WSW 6.9 mph - N/A   Mostly Cloudy
1:35 PM 71.6 °F 60.8 °F 69% 29.79 in 10.0 mi SW 6.9 mph - N/A   Scattered Clouds
1:55 PM 73.4 °F 60.8 °F 65% 29.79 in 10.0 mi SW 6.9 mph - N/A   Scattered Clouds
2:15 PM 77.0 °F 60.8 °F 57% 29.78 in 10.0 mi WSW 9.2 mph - N/A   Clear
2:35 PM 77.0 °F 59.0 °F 54% 29.78 in 10.0 mi SW 8.1 mph - N/A   Clear
2:55 PM 77.0 °F 59.0 °F 54% 29.77 in 10.0 mi SW 9.2 mph 17.3 mph N/A   Clear
3:15 PM 78.8 °F 59.0 °F 51% 29.77 in 10.0 mi West 10.4 mph - N/A   Clear
3:35 PM 78.8 °F 59.0 °F 51% 29.77 in 10.0 mi SW 5.8 mph 18.4 mph N/A   Scattered Clouds
3:55 PM 78.8 °F 59.0 °F 51% 29.77 in 10.0 mi West 8.1 mph 16.1 mph N/A   Scattered Clouds
4:15 PM 78.8 °F 59.0 °F 51% 29.77 in 10.0 mi West 9.2 mph - N/A   Scattered Clouds
4:35 PM 78.8 °F 57.2 °F 47% 29.77 in 10.0 mi WSW 8.1 mph - N/A   Scattered Clouds
4:55 PM 77.0 °F 57.2 °F 50% 29.77 in 10.0 mi West 6.9 mph - N/A   Scattered Clouds
5:15 PM 73.4 °F 60.8 °F 65% 29.77 in 10.0 mi NW 10.4 mph - N/A   Mostly Cloudy
5:35 PM 75.2 °F 62.6 °F 65% 29.77 in 10.0 mi NW 9.2 mph - N/A   Mostly Cloudy
5:55 PM 75.2 °F 62.6 °F 65% 29.77 in 10.0 mi WNW 11.5 mph - N/A   Scattered Clouds
6:15 PM 71.6 °F 60.8 °F 69% 29.78 in 10.0 mi West 13.8 mph 18.4 mph N/A   Clear
6:35 PM 71.6 °F 62.6 °F 73% 29.78 in 10.0 mi West 10.4 mph - N/A   Scattered Clouds
6:55 PM 71.6 °F 59.0 °F 64% 29.78 in 10.0 mi West 13.8 mph 18.4 mph N/A   Mostly Cloudy
7:15 PM 71.6 °F 60.8 °F 69% 29.79 in 10.0 mi West 9.2 mph - N/A   Mostly Cloudy
7:35 PM 71.6 °F 62.6 °F 73% 29.79 in 10.0 mi West 9.2 mph - N/A   Mostly Cloudy
7:55 PM 71.6 °F 62.6 °F 73% 29.79 in 10.0 mi West 8.1 mph - N/A   Mostly Cloudy
8:15 PM 71.6 °F 60.8 °F 69% 29.79 in 10.0 mi West 8.1 mph - N/A   Mostly Cloudy
8:35 PM 71.6 °F 60.8 °F 69% 29.79 in 10.0 mi West 8.1 mph - N/A   Overcast
8:55 PM 69.8 °F 60.8 °F 73% 29.80 in 10.0 mi West 6.9 mph - N/A   Scattered Clouds
9:15 PM 69.8 °F 60.8 °F 73% 29.79 in 10.0 mi West 8.1 mph - N/A   Mostly Cloudy
9:35 PM 68.0 °F 60.8 °F 78% 29.80 in 10.0 mi West 6.9 mph - N/A   Overcast
9:55 PM 68.0 °F 62.6 °F 83% 29.81 in 7.0 mi West 4.6 mph - N/A   Mostly Cloudy
10:15 PM 66.2 °F 60.8 °F 83% 29.81 in 7.0 mi Calm Calm - N/A   Scattered Clouds
10:35 PM 66.2 °F 62.6 °F 88% 29.82 in 7.0 mi West 3.5 mph - N/A   Clear
10:55 PM 66.2 °F 62.6 °F 88% 29.83 in 7.0 mi West 4.6 mph - N/A   Scattered Clouds
11:15 PM 66.2 °F 62.6 °F 88% 29.83 in 7.0 mi West 8.1 mph - N/A   Scattered Clouds
11:35 PM 66.2 °F 60.8 °F 83% 29.83 in 7.0 mi WNW 8.1 mph - N/A   Clear
11:55 PM 64.4 °F 60.8 °F 88% 29.84 in 10.0 mi West 6.9 mph - N/A   Clear